Grand Canyon, AZ

2:52 PM MST on November 18, 2017 (GMT -0700)
Grand Canyon National Park

Weather History for KGCN - June, 2013

Change the Weather History Date:

Monday, June 10, 2013

  Actual Average Record
Temperature  
Mean Temperature 63 °F -  
Max Temperature 87 °F 76 °F 90 °F (1985)
Min Temperature 39 °F 34 °F 25 °F (2004)
Degree Days  
Heating Degree Days 2    
Growing Degree Days 13 (Base 50)    
Moisture  
Dew Point 6 °F    
Average Humidity 14    
Maximum Humidity 36    
Minimum Humidity 4    
Precipitation  
Precipitation 0.00 in - - ()
Sea Level Pressure  
Sea Level Pressure 29.86 in    
Wind  
Wind Speed 8 mph (SW)    
Max Wind Speed 28 mph    
Max Gust Speed 39 mph    
Visibility 10 miles    
Events      
Averages and records for this station are not official NWS values.
T = Trace of Precipitation, MM = Missing Value Source: NWS Daily Summary

Daily Weather History Graph

Daily Weather History Graph

Search for Another Location

Airport or City:

Trip Planner

Search our weather history database for the weather conditions in past years. The results will help you decide how hot, cold, wet, or windy it might be!

Date:

Astronomy

Jun. 10, 2013 Rise Set
Actual Time 5:11 AM MST 7:44 PM MST
Civil Twilight 4:41 AM MST 8:15 PM MST
Nautical Twilight 4:04 AM MST 8:52 PM MST
Astronomical Twilight 3:22 AM MST 9:33 PM MST
Moon 7:00 AM MST (6/10) 9:17 PM MST (6/10)
Length of Visible Light 15h 33m
Length of Day
14h 33m
Waxing Crescent, 4% of the Moon is Illuminated
Jun 10
Waxing Crescent
Jun 16
First Quarter
Jun 23
Full
Jun 29
Last Quarter
Jul 8
New

Hourly Weather History & Observations

Time (MST) Temp. Dew Point Humidity Pressure Visibility Wind Dir Wind Speed Gust Speed Precip Events Conditions
12:54 AM 45.0 °F 15.1 °F 30% 29.90 in 10.0 mi Calm Calm - N/A   Clear
1:54 AM 45.0 °F 15.1 °F 30% 29.89 in 10.0 mi Calm Calm - N/A   Clear
2:54 AM 44.1 °F 15.1 °F 31% 29.89 in 10.0 mi Calm Calm - N/A   Clear
3:54 AM 41.0 °F 15.1 °F 35% 29.91 in 10.0 mi Calm Calm - N/A   Clear
4:54 AM 39.9 °F 15.1 °F 36% 29.92 in 10.0 mi Calm Calm - N/A   Clear
5:54 AM 43.0 °F 17.1 °F 35% 29.92 in 10.0 mi Calm Calm - N/A   Clear
6:54 AM 57.0 °F 21.9 °F 26% 29.88 in 10.0 mi Calm Calm - N/A   Clear
7:54 AM 73.0 °F 10.9 °F 9% 29.85 in 10.0 mi WSW 9.2 mph - N/A   Clear
8:54 AM 78.1 °F 8.1 °F 7% 29.86 in 10.0 mi SSW 10.4 mph - N/A   Clear
9:54 AM 81.0 °F 6.1 °F 6% 29.89 in 10.0 mi SW 10.4 mph 21.9 mph N/A   Clear
10:54 AM 82.9 °F -0.9 °F 4% 29.91 in 10.0 mi SW 18.4 mph 28.8 mph N/A   Clear
11:54 AM 84.9 °F -0.0 °F 4% 29.91 in 10.0 mi SSW 17.3 mph 31.1 mph N/A   Clear
12:54 PM 84.9 °F -2.0 °F 4% 29.91 in 10.0 mi SW 25.3 mph 36.8 mph N/A   Clear
1:54 PM 84.9 °F -6.0 °F 4% 29.88 in 10.0 mi SSW 27.6 mph 36.8 mph N/A   Clear
2:54 PM 87.1 °F -7.1 °F 4% 29.85 in 10.0 mi SW 26.5 mph 39.1 mph N/A   Clear
3:54 PM 84.9 °F -9.0 °F 4% 29.87 in 10.0 mi SSW 26.5 mph 39.1 mph N/A   Clear
4:54 PM 84.9 °F -6.0 °F 4% 29.86 in 10.0 mi SW 16.1 mph 34.5 mph N/A   Clear
5:54 PM 82.0 °F -5.1 °F 4% 29.84 in 10.0 mi SW 26.5 mph 34.5 mph N/A   Clear
6:54 PM 78.1 °F -0.9 °F 5% 29.81 in 10.0 mi SSW 19.6 mph 26.5 mph N/A   Clear
7:54 PM 73.0 °F 7.0 °F 8% 29.78 in 10.0 mi SW 12.7 mph - N/A   Clear
8:54 PM 68.0 °F 9.0 °F 10% 29.79 in 10.0 mi SW 5.8 mph - N/A   Clear
9:54 PM 66.9 °F 9.0 °F 10% 29.80 in 10.0 mi SSW 8.1 mph - N/A   Clear
10:54 PM 57.9 °F 8.1 °F 14% 29.83 in 10.0 mi SW 3.5 mph - N/A   Clear
11:54 PM 63.0 °F 9.0 °F 12% 29.80 in 10.0 mi South 8.1 mph - N/A   Clear